Theta_e
305 303 301 300 298 297 296 296 294 293 292 292 292 292 290 290 290 289 288 287 286 287 287 286 287 287 286 286 286 285 285 285 285 285 284 284 284 284 284 283 283 283 282 282 282 282 282 282 282 282 281 281 281 281 281 282 285 286 287 286 286 286 286 286 287 287 287 286 286 286 286 286 286 287
302 301 299 299 298 296 295 295 293 291 291 291 291 291 290 289 289 289 289 288 287 287 288 287 287 287 287 287 286 286 286 285 285 285 284 284 284 284 284 283 283 283 283 282 282 282 282 282 282 281 281 281 281 281 281 283 285 285 285 286 285 285 285 286 286 286 286 286 285 285 285 285 286 286
301 300 298 298 297 295 293 292 291 290 289 290 290 289 289 289 289 288 288 288 287 287 287 287 287 287 287 287 286 286 285 285 285 284 284 284 284 283 283 283 283 283 283 282 282 282 282 282 282 281 281 281 281 281 281 282 284 283 284 285 284 284 285 285 285 285 285 285 285 284 285 285 285 286
301 300 298 297 295 293 291 290 289 288 288 288 288 288 288 288 287 287 287 287 286 286 287 287 287 287 286 286 286 285 285 284 284 284 284 284 283 283 283 283 283 283 283 283 283 283 283 283 282 282 282 282 281 281 281 281 282 282 284 285 284 284 284 284 284 284 284 284 284 284 284 284 285 285
300 299 297 295 293 291 290 289 288 287 287 287 287 287 287 286 286 286 286 286 285 285 286 286 286 286 285 285 285 285 284 284 284 284 284 283 283 283 283 283 284 284 284 284 284 284 284 283 283 282 282 283 282 281 281 281 282 282 283 284 283 282 282 283 284 284 284 283 283 283 284 284 284 285
298 297 296 293 290 288 288 288 287 287 286 286 286 286 286 286 286 286 286 285 284 284 285 285 285 285 285 284 284 284 284 284 283 283 283 283 283 283 283 283 284 284 284 284 283 284 284 284 283 283 283 283 282 282 282 282 282 282 282 282 281 281 281 281 282 283 283 282 282 282 283 283 284 284
295 294 293 290 287 287 287 287 286 286 286 286 286 286 286 287 286 286 285 284 284 284 284 284 284 283 284 284 283 283 283 283 283 283 283 283 283 283 283 283 284 284 284 283 283 283 284 284 283 283 283 283 282 282 283 283 282 282 282 281 281 281 281 281 281 282 281 281 281 282 282 283 283 284
294 293 291 288 286 287 287 286 285 285 285 286 286 287 287 287 286 286 285 285 284 283 283 283 284 284 283 283 283 283 283 283 282 282 282 282 282 283 283 283 283 284 283 283 283 283 283 283 283 283 283 283 282 283 283 283 283 282 282 282 281 281 281 281 280 280 280 280 281 281 282 282 283 283
294 292 290 288 286 286 286 285 285 285 285 287 288 288 288 287 287 287 287 286 285 284 284 284 285 285 284 283 283 283 282 282 282 282 282 282 282 283 283 283 283 283 283 283 283 283 283 283 283 283 283 283 282 282 283 283 282 282 282 281 281 281 281 281 281 280 280 280 280 281 281 282 282 282
293 291 289 287 286 286 286 285 285 286 288 289 290 290 289 289 289 289 288 287 286 286 286 286 285 285 285 285 285 284 283 282 282 282 282 283 283 283 283 283 283 283 282 283 283 283 283 283 283 283 283 283 283 282 282 282 282 282 281 281 281 281 281 281 280 280 280 280 280 280 280 281 281 282
290 289 287 286 286 286 286 285 286 289 291 292 291 291 291 291 291 290 289 288 287 287 286 286 285 285 285 285 285 284 283 282 282 282 282 282 283 283 282 282 282 282 282 282 282 282 282 282 282 282 282 283 282 282 282 282 282 281 281 281 282 281 281 280 280 280 280 280 280 280 280 280 281 281
288 287 286 286 286 286 286 288 291 293 294 293 292 292 292 292 291 291 290 289 288 287 286 285 285 285 285 284 284 283 283 282 282 283 282 282 282 282 282 282 282 282 282 282 282 282 282 282 282 282 282 282 282 281 281 281 280 280 280 280 280 281 281 280 280 280 280 279 279 279 280 280 280 280
286 286 286 285 285 286 289 292 294 294 294 294 293 293 292 292 291 291 290 289 289 288 286 285 285 284 284 284 284 284 284 283 283 283 282 282 282 282 281 281 281 281 281 281 282 282 282 282 282 282 282 282 281 281 280 280 280 279 279 279 279 280 280 280 280 279 279 279 279 279 280 280 280 279
285 285 285 284 286 290 293 294 294 293 293 293 293 293 292 292 291 291 290 290 289 287 286 285 285 284 284 284 285 284 284 284 283 283 282 282 282 281 281 281 281 281 281 281 281 281 282 281 281 281 281 281 281 280 280 279 279 279 278 279 279 279 279 279 279 279 279 279 279 279 279 279 279 278
284 284 284 286 290 293 294 293 293 293 293 293 293 293 292 292 291 291 290 290 289 287 286 286 285 284 284 285 285 284 284 284 283 282 282 281 281 281 280 280 281 281 281 281 281 281 281 281 280 280 280 280 280 279 279 279 279 279 279 279 279 279 279 279 279 279 279 278 278 278 278 278 278 278
284 284 286 289 293 293 293 293 293 293 293 293 293 293 292 292 291 291 290 290 289 287 286 286 285 285 285 285 284 284 284 283 283 282 282 281 281 280 280 280 280 281 280 280 280 280 280 280 280 280 280 280 279 279 279 279 279 279 279 279 279 279 279 279 279 278 278 278 278 278 278 278 277 277
285 285 287 291 293 293 293 293 293 293 293 293 293 292 292 291 291 290 290 289 288 287 286 285 285 285 284 284 284 284 283 283 282 281 281 281 280 280 280 280 280 280 280 280 280 280 280 280 280 280 280 280 279 279 279 279 279 279 279 279 279 279 278 278 278 278 278 278 277 277 277 277 277 277
285 286 288 291 292 292 292 293 293 293 293 292 292 292 292 291 291 290 289 288 287 286 285 285 285 284 284 284 283 283 282 282 282 281 281 281 281 281 281 281 281 281 281 280 280 280 280 280 280 280 280 280 279 279 279 279 278 278 278 278 278 278 278 278 278 277 277 277 277 277 276 276 276 276
285 286 288 291 292 292 292 292 292 293 292 292 292 292 291 291 290 289 288 287 286 286 285 284 284 283 283 282 282 282 282 282 282 282 282 281 281 281 281 281 281 281 281 280 280 280 280 280 280 279 279 279 279 279 278 278 278 278 278 278 278 278 277 277 277 277 277 276 276 276 276 276 276 276
285 286 288 291 292 292 292 292 292 292 292 292 292 291 291 290 288 287 287 286 285 285 284 283 283 282 282 282 282 282 282 282 282 282 281 281 281 281 281 281 281 280 280 280 280 280 280 280 279 279 279 279 279 278 278 278 277 277 277 277 277 277 277 277 276 276 276 276 275 275 275 275 275 275
285 287 289 292 292 292 292 292 292 292 292 291 291 290 289 288 287 286 286 285 284 283 283 282 282 282 282 282 282 282 281 281 281 281 281 281 280 280 280 280 280 280 280 280 280 279 279 279 279 278 278 278 278 278 278 277 277 276 276 276 276 276 276 276 276 275 275 275 275 275 275 274 274 274
286 289 291 291 291 291 291 291 291 291 291 291 290 289 288 287 286 285 285 284 283 282 282 282 282 282 282 281 281 281 282 281 281 281 281 280 280 280 280 280 280 280 280 279 279 278 278 278 278 277 277 277 277 277 276 276 276 275 275 275 275 275 275 275 274 274 274 274 274 274 273 273 273 273
289 291 291 290 290 290 290 291 291 290 290 289 289 288 286 285 284 284 283 282 282 282 282 282 282 282 281 282 282 282 281 281 281 281 280 280 280 280 280 280 279 279 279 278 278 278 278 277 277 277 276 276 276 276 275 275 275 274 274 274 274 274 274 273 273 273 273 273 272 272 272 273 272 272
290 290 290 290 290 290 290 290 290 289 288 288 287 285 284 284 283 283 283 282 282 282 282 282 281 281 281 281 281 280 280 280 280 280 279 279 279 279 279 279 278 278 278 278 277 277 277 276 276 276 276 275 275 275 275 274 274 274 274 273 273 273 273 272 272 271 271 271 271 271 271 271 271 272
290 289 289 289 289 289 289 289 288 287 287 286 285 284 284 283 283 283 282 282 282 282 281 280 280 280 280 280 280 280 280 279 279 278 277 277 277 277 277 277 278 278 277 277 276 276 275 275 275 275 275 274 274 274 274 274 274 273 273 273 273 272 272 271 271 270 270 270 270 270 270 270 271 271
289 288 289 289 289 289 288 287 286 286 285 285 284 283 283 283 282 282 282 281 281 280 279 279 279 279 279 279 279 279 278 277 276 276 276 275 275 275 275 276 276 276 275 275 274 273 273 273 273 273 273 273 273 273 273 273 273 272 272 272 272 271 271 270 270 270 269 269 268 269 269 270 270 270
287 288 288 288 287 287 286 285 285 284 284 283 283 282 282 282 281 281 280 279 279 278 278 278 278 278 278 277 277 277 276 275 275 275 275 274 274 274 274 274 274 273 273 272 271 271 271 271 271 271 272 272 272 272 272 272 272 271 271 271 271 270 270 270 269 269 268 268 268 268 268 268 268 268
287 287 287 286 286 285 285 284 283 282 282 281 281 281 281 280 280 279 278 278 277 277 277 277 277 276 277 276 276 275 275 274 274 273 273 273 273 272 272 272 272 271 271 270 270 269 269 270 270 270 270 270 270 271 271 270 270 270 270 270 270 270 269 269 268 268 268 267 267 267 267 267 267 267
286 286 285 285 284 284 283 282 281 281 280 280 280 279 279 279 278 278 277 277 276 276 276 276 276 276 276 275 275 274 274 273 272 272 272 272 271 271 271 270 270 270 269 269 268 268 268 268 269 269 269 269 269 269 269 269 269 269 269 269 269 268 268 268 268 267 267 267 267 267 267 267 266 266
285 284 284 284 283 282 281 281 280 279 279 279 279 278 278 278 277 277 276 276 276 276 276 276 276 275 275 274 273 273 272 272 271 271 271 271 270 270 269 269 269 269 268 268 267 267 267 267 267 268 268 268 268 268 269 268 268 268 268 268 268 267 267 267 267 266 266 266 267 267 266 266 266 266
284 284 283 283 282 281 280 279 279 279 278 278 278 278 277 277 276 276 276 276 276 276 275 275 275 274 274 273 272 271 271 270 270 270 270 269 268 268 268 268 268 268 268 267 267 266 266 266 266 266 267 267 268 268 267 267 267 267 267 267 267 267 267 267 266 266 266 266 266 266 265 265 265 265
283 283 282 281 280 279 279 279 279 278 278 278 277 277 277 276 276 276 276 275 275 275 275 274 274 273 272 271 270 269 269 269 268 268 267 267 267 267 266 267 267 267 266 266 266 266 265 265 265 265 266 266 267 266 266 266 266 266 266 266 266 266 266 266 266 266 266 266 265 265 265 264 264 265
282 280 280 279 279 279 279 278 278 278 277 277 277 277 276 276 276 275 275 275 274 274 274 273 272 271 269 269 268 268 267 267 266 266 266 265 265 265 265 265 265 265 265 265 265 264 264 264 264 264 265 265 265 265 265 265 265 265 266 266 266 266 265 265 265 265 265 265 265 264 264 264 264 264
280 279 279 279 279 278 278 278 278 277 277 277 276 276 276 275 275 274 274 274 273 273 272 271 269 268 267 267 267 267 266 266 265 265 265 264 264 264 264 264 264 264 264 264 263 263 263 263 263 263 264 264 264 264 264 265 265 265 266 265 265 265 265 265 265 265 265 264 264 263 263 263 264 264
279 279 279 278 278 278 278 277 277 277 277 276 276 275 275 274 273 273 273 273 272 271 270 268 267 267 266 266 266 266 265 265 265 265 264 264 263 263 263 263 263 263 263 263 263 263 262 262 263 263 263 263 263 263 264 264 265 265 265 265 265 265 265 265 265 265 264 263 263 263 263 263 264 264
279 279 278 278 278 278 278 277 277 276 276 275 275 274 274 273 272 272 272 271 270 268 267 267 266 266 266 265 265 265 265 264 264 264 264 263 263 262 263 263 262 262 262 262 262 262 262 262 262 262 263 263 263 263 263 263 264 264 264 264 264 264 263 263 264 264 263 263 263 263 263 263 263 264
279 279 278 278 278 278 277 277 276 275 275 274 274 273 273 272 271 271 270 269 268 267 266 266 266 265 265 265 265 265 265 264 263 263 263 262 262 262 262 262 262 262 262 262 261 261 262 262 262 262 262 262 262 262 262 262 263 263 263 262 262 263 262 263 263 263 263 263 263 263 263 264 264 264
279 279 278 278 277 277 276 276 275 274 274 273 273 272 272 271 270 269 268 267 267 267 266 266 265 265 265 265 264 264 264 264 263 263 262 262 262 261 261 261 261 261 261 261 261 261 261 261 262 262 261 261 260 261 261 260 261 263 263 262 261 262 263 263 263 263 263 264 264 264 264 264 264 264
278 278 278 277 276 276 275 275 274 274 273 272 272 272 271 270 269 268 267 267 267 266 266 265 265 265 264 264 264 264 264 263 263 262 262 262 261 261 261 261 261 261 261 260 261 261 261 261 261 261 261 260 260 260 260 259 260 262 263 262 261 262 263 263 263 264 264 264 264 264 263 263 263 264
277 277 277 276 276 275 274 274 273 273 272 272 271 270 269 268 267 267 266 266 266 266 265 265 264 264 264 264 264 263 263 263 262 262 261 261 261 261 260 260 260 260 260 260 260 260 260 260 260 260 260 260 260 260 260 260 260 260 261 262 261 261 262 263 263 263 263 263 263 264 264 264 264 264
277 276 276 275 275 274 274 273 272 272 271 271 270 269 268 267 267 266 266 266 266 266 265 265 264 264 264 264 263 263 263 262 262 262 261 261 260 260 260 260 260 260 260 259 259 260 260 260 260 260 260 260 259 259 259 259 259 259 260 260 261 261 261 262 263 263 263 263 264 264 264 265 265 265
276 275 275 274 274 273 273 272 271 271 270 269 268 268 267 267 267 266 266 266 265 265 265 264 264 264 264 263 263 262 262 262 261 261 261 260 260 260 260 260 259 259 259 259 259 260 260 260 259 259 259 259 259 259 258 258 258 259 259 259 260 261 261 262 262 262 263 263 264 264 265 265 265 266
274 274 273 273 272 272 271 270 270 269 269 268 268 267 267 267 266 266 266 265 265 265 264 264 264 264 263 263 263 262 262 262 261 261 261 260 260 260 260 260 260 259 259 259 259 259 259 259 259 259 259 259 258 258 258 258 258 258 259 259 260 260 261 262 262 262 263 263 264 264 265 265 266 266
273 273 272 272 271 270 270 269 269 268 268 268 267 267 267 267 266 266 265 265 265 264 264 264 263 263 263 263 262 262 262 261 261 260 260 260 260 259 259 259 259 259 259 259 259 259 259 259 259 259 258 258 258 258 258 258 258 258 259 259 259 259 260 261 262 262 263 264 264 264 264 265 266 266
272 271 271 270 270 270 269 269 268 268 267 267 267 267 267 266 266 265 265 264 264 264 263 263 263 263 262 262 262 262 262 261 261 260 260 260 259 259 259 259 259 259 259 259 259 259 258 258 259 259 258 258 258 258 258 258 258 259 259 259 259 259 260 261 261 261 262 263 264 264 264 264 265 265
Wind_Speed
27 27 27 26 25 24 23 21 18 17 16 15 15 16 17 14 8 4 3 7 11 13 16 16 13 14 16 16 17 19 20 21 22 22 22 22 22 22 23 24 24 25 25 26 26 26 27 28 28 28 28 27 27 27 27 26 24 23 23 23 23 22 22 22 21 21 23 24 24 25 25 26 27 28
26 27 26 25 24 22 21 20 18 16 15 15 16 15 14 13 12 9 5 4 7 9 13 15 11 11 12 13 14 15 16 18 19 20 21 21 21 22 23 25 26 26 26 27 27 27 28 28 29 29 28 28 28 27 27 26 25 25 25 25 25 24 23 22 22 22 23 24 24 25 25 26 27 28
26 25 25 24 23 22 21 19 18 17 17 17 18 16 14 12 11 11 7 3 3 3 6 10 10 11 12 13 13 14 15 16 17 19 20 21 22 23 25 26 26 26 27 27 27 27 28 28 28 28 28 28 28 27 27 27 27 28 27 26 26 25 23 23 24 23 23 24 25 25 26 26 27 28
27 25 25 24 23 23 22 21 20 19 19 19 18 16 14 11 9 8 7 5 3 1 2 6 8 10 12 13 14 15 16 17 18 20 21 22 23 24 25 25 25 26 26 26 26 26 26 27 27 28 28 28 27 26 26 27 28 29 27 25 26 26 25 25 25 24 24 24 25 25 26 27 27 28
27 26 26 24 24 24 23 22 21 21 20 19 17 14 12 11 8 6 6 5 2 1 3 5 8 10 11 13 15 16 17 18 20 21 22 22 24 25 25 26 26 26 26 25 26 25 25 26 26 27 27 27 26 25 25 27 28 29 28 27 28 28 28 27 26 25 25 25 26 26 27 27 28 29
27 27 26 26 26 25 24 23 22 22 20 19 17 15 12 10 7 5 4 4 2 2 5 7 9 10 12 14 16 17 19 20 21 23 24 24 25 26 27 28 28 27 26 26 26 25 25 25 25 26 26 26 25 25 25 27 29 29 29 29 30 30 30 30 28 27 26 26 26 27 27 28 28 29
28 28 28 29 29 27 25 25 24 22 21 19 18 15 12 10 8 5 4 3 2 3 7 9 10 12 14 16 18 19 20 22 23 24 26 27 28 29 29 30 31 29 28 27 26 26 25 25 25 26 27 26 26 26 25 26 27 29 29 29 29 30 31 31 30 28 27 27 27 27 28 28 28 30
30 31 31 31 31 28 27 27 25 23 21 19 18 15 12 10 8 6 5 3 2 3 7 11 13 14 15 17 18 19 22 23 24 26 28 28 29 31 31 32 32 31 29 28 27 27 26 26 27 27 28 27 27 27 26 25 26 28 28 28 29 31 31 32 31 29 28 27 27 27 28 28 29 29
32 33 33 33 31 30 29 28 26 24 21 18 16 14 12 10 8 6 5 4 4 5 9 14 17 16 16 18 19 20 21 23 24 26 28 29 30 32 33 33 33 32 31 29 29 29 28 28 28 29 29 29 29 29 28 27 27 28 29 29 30 31 30 29 29 28 27 26 27 27 28 28 29 29
33 34 34 33 32 30 30 29 26 23 20 17 15 13 11 8 6 4 4 5 6 8 12 15 18 18 18 19 21 20 20 22 24 26 29 31 32 32 34 35 35 32 31 31 31 31 30 31 31 30 31 30 30 31 30 30 30 31 30 29 29 30 30 29 28 27 26 26 27 28 28 28 28 29
33 33 33 32 31 30 30 29 26 22 18 16 13 11 8 6 4 3 3 5 7 10 13 15 18 19 18 19 21 21 19 20 23 25 28 33 34 32 33 36 36 33 32 33 33 33 33 33 33 32 32 32 32 32 31 32 32 31 30 30 29 30 30 29 28 26 26 27 28 28 28 28 28 29
31 31 31 31 30 29 27 24 21 19 17 15 13 10 7 5 4 2 3 5 7 10 13 15 17 18 18 19 20 20 18 19 23 24 24 29 34 34 34 36 35 32 32 33 34 34 33 33 34 34 33 34 33 32 32 32 32 31 30 31 30 30 29 28 27 27 27 27 28 28 28 28 28 29
31 31 31 30 29 26 23 21 19 17 15 13 11 10 8 6 4 2 2 4 7 10 12 15 15 16 18 18 19 20 19 19 23 25 24 27 31 33 35 37 35 30 30 31 32 32 32 32 33 33 34 35 34 32 33 32 32 33 33 31 30 29 29 27 26 26 27 27 28 28 28 27 27 29
31 31 31 29 27 24 22 21 19 17 14 10 8 7 6 4 4 3 3 5 8 10 12 14 14 15 18 19 18 20 21 21 23 25 24 26 29 30 30 34 35 29 24 26 29 30 30 30 32 33 34 34 33 32 33 33 32 33 32 30 29 28 26 25 26 27 27 27 27 28 26 26 27 30
33 32 31 28 26 24 23 21 18 14 11 8 5 4 3 2 3 3 5 7 9 11 13 14 15 16 20 22 19 19 22 22 22 23 24 25 27 26 24 27 31 27 19 20 25 29 30 29 29 31 33 32 32 33 33 32 32 30 29 28 29 27 26 26 27 28 27 26 27 26 25 26 29 31
34 33 31 28 26 24 22 18 15 11 8 5 3 3 4 5 7 8 8 9 11 12 13 16 18 17 21 24 21 18 21 23 24 25 25 24 24 24 24 25 28 27 23 23 27 32 35 32 29 32 34 33 33 34 33 32 30 29 30 30 29 27 27 27 28 27 26 26 26 25 25 27 30 31
36 35 33 30 27 23 19 15 11 8 5 3 4 5 7 9 10 11 12 12 12 13 14 19 21 20 20 24 24 21 22 24 26 26 26 25 24 24 26 28 31 33 31 30 30 32 36 35 31 32 36 35 34 34 34 33 31 30 29 28 27 27 27 28 28 27 25 25 25 25 27 29 30 30
36 35 34 31 27 23 18 13 8 5 3 3 5 7 10 12 13 14 14 13 13 15 16 20 24 23 22 25 27 26 24 24 26 26 27 27 25 26 30 32 34 35 34 30 27 27 31 33 30 31 35 34 33 34 34 33 30 28 28 28 27 28 29 28 27 25 24 25 26 27 29 30 30 30
35 34 32 28 24 19 15 10 6 3 3 4 6 10 12 15 16 15 15 15 16 18 19 20 23 24 23 24 26 26 25 25 25 26 27 27 27 29 31 32 34 35 33 28 22 22 27 29 28 30 34 34 34 35 34 32 29 26 27 28 28 28 28 26 24 23 24 26 27 29 30 29 29 29
33 31 28 24 19 15 12 8 4 2 3 6 9 11 14 16 16 16 16 17 18 18 18 19 21 21 21 21 22 22 22 22 23 25 26 27 26 26 27 27 29 31 31 28 22 22 26 27 27 29 32 33 35 36 35 33 30 27 27 27 27 27 25 23 22 24 26 27 28 29 28 28 28 29
29 27 23 20 16 12 9 5 3 3 5 9 11 13 14 15 15 16 17 17 17 17 17 18 19 19 18 18 19 19 19 20 21 23 25 25 24 23 21 20 22 27 30 27 22 20 23 25 25 27 28 30 33 35 35 35 32 28 26 25 25 23 21 21 23 25 26 27 27 27 26 27 28 29
27 24 21 16 13 9 6 4 4 5 8 10 11 13 14 14 15 15 15 15 15 16 17 17 18 18 18 19 20 20 20 20 20 21 23 25 24 22 19 19 22 26 26 24 20 19 23 25 26 26 26 28 32 32 30 30 28 23 21 21 22 21 20 22 24 25 24 24 24 24 25 26 27 29
25 22 19 15 11 8 6 6 6 8 9 10 10 11 12 13 13 13 13 14 15 15 16 17 18 19 20 20 19 20 20 20 20 20 22 24 24 22 22 22 20 16 17 22 23 22 23 25 26 26 20 17 23 28 26 23 22 20 18 20 22 22 21 21 22 22 22 22 22 23 24 25 26 28
23 20 17 13 10 9 9 8 7 7 8 8 8 8 9 10 11 11 12 13 13 13 14 16 18 19 19 19 19 20 21 19 17 16 17 19 21 22 23 23 19 15 18 24 24 21 22 25 27 28 22 14 17 25 27 26 25 23 21 21 22 23 23 22 22 21 20 20 22 22 23 24 25 26
21 18 16 14 12 11 9 8 7 6 6 6 6 7 8 9 10 10 11 11 12 14 17 18 18 17 17 17 17 17 15 14 15 16 17 18 18 18 20 22 22 22 22 24 25 25 27 27 27 28 26 21 21 26 28 28 27 24 21 21 22 23 22 20 20 21 22 22 21 21 22 23 23 25
21 18 16 14 12 10 8 6 5 4 3 4 6 6 6 6 7 9 11 13 14 15 16 15 14 14 14 14 14 14 14 16 19 20 20 19 18 17 17 19 21 23 24 26 27 27 28 29 28 27 26 25 26 27 27 26 25 23 20 19 19 19 18 18 20 23 23 21 20 20 21 22 23 24
21 17 14 12 10 8 6 5 5 5 5 6 7 6 4 5 7 10 11 11 11 10 10 10 11 11 12 13 14 15 17 20 21 20 20 20 20 19 18 17 18 21 23 25 25 24 25 27 29 28 28 27 27 25 24 24 25 24 22 20 19 18 18 20 23 23 21 19 19 21 23 23 24 23
18 15 13 11 9 7 6 5 5 5 5 5 5 5 5 7 7 7 7 6 6 7 8 9 10 10 11 12 14 17 19 21 21 21 20 20 20 21 21 20 20 20 21 22 22 22 23 26 28 28 28 28 26 23 23 25 28 26 24 22 20 20 22 23 23 21 18 17 19 22 23 24 24 23
14 13 12 10 9 7 6 5 4 4 5 4 4 4 4 3 3 3 3 4 5 7 8 8 9 10 11 13 16 18 20 21 22 22 22 21 22 22 22 22 22 21 21 21 21 21 21 24 27 29 29 28 26 26 26 28 28 27 23 22 23 25 25 23 19 17 18 18 19 21 22 24 24 23
13 12 11 9 8 5 4 4 4 4 5 4 3 2 2 1 1 2 4 4 5 6 7 7 8 10 13 16 18 18 19 19 19 20 21 22 23 23 23 25 25 23 21 21 21 21 21 22 24 26 29 30 28 26 26 27 28 28 25 23 24 25 24 20 17 18 19 19 19 22 23 23 23 22
13 12 10 8 6 5 4 5 6 6 5 4 4 4 2 0 2 2 2 3 5 6 7 8 9 12 15 17 17 16 16 16 16 17 19 21 22 23 23 24 24 24 23 22 21 21 21 22 23 24 27 30 30 27 25 25 27 29 28 25 25 24 23 21 20 19 19 19 21 24 23 22 22 23
13 11 9 8 7 7 8 9 9 8 6 4 4 3 1 0 1 2 4 5 6 7 8 10 12 15 16 16 15 14 14 15 16 17 18 18 20 21 21 20 22 24 26 25 24 22 22 22 23 23 24 26 27 28 28 27 27 28 29 29 27 24 22 21 19 17 19 21 23 24 23 22 25 25
14 13 12 11 11 11 11 11 9 8 7 6 4 3 2 3 4 5 6 6 7 8 10 12 13 14 14 13 13 13 14 15 16 17 17 17 17 18 18 18 19 22 25 27 27 27 26 25 24 23 22 21 22 25 28 29 29 29 29 28 25 22 21 18 15 16 20 23 24 24 24 24 26 26
15 16 15 14 13 12 12 11 10 9 8 6 5 5 5 6 6 6 7 7 8 9 11 12 12 11 11 11 12 13 14 15 15 15 15 15 16 16 17 19 20 20 22 24 26 27 29 29 27 24 22 21 21 21 22 24 28 29 29 27 23 19 17 13 12 19 24 24 23 23 23 24 26 24
17 17 16 14 13 12 11 11 10 9 8 6 7 7 7 6 7 7 7 8 9 10 10 9 8 8 8 9 10 11 13 14 15 15 14 14 14 15 16 17 19 20 21 23 25 26 27 28 29 27 24 21 19 17 17 20 24 26 27 26 20 16 15 15 19 26 28 25 22 21 20 23 26 24
16 15 15 14 14 13 12 11 10 9 8 8 9 9 8 8 8 7 8 9 9 8 7 6 6 6 7 8 9 10 11 13 14 14 15 14 14 15 15 16 18 19 20 21 23 24 24 25 26 24 20 16 12 10 14 23 27 26 24 23 21 21 23 26 27 28 27 24 22 20 18 20 24 24
16 15 14 14 15 14 12 11 11 10 10 10 10 9 9 9 9 9 9 8 7 6 5 6 6 6 6 7 8 9 10 11 12 13 14 14 14 15 16 18 18 19 20 21 21 21 21 22 22 19 15 11 7 6 13 25 32 27 21 21 24 28 28 27 27 27 26 24 22 20 18 19 23 27
16 16 15 15 15 13 12 12 12 11 11 11 10 10 9 9 9 8 8 7 6 5 5 6 6 6 6 6 7 8 9 10 11 12 12 13 14 15 16 18 19 19 20 21 20 19 18 18 18 18 15 10 6 6 11 21 30 31 27 23 24 26 26 25 26 26 26 23 20 19 19 20 23 26
15 16 16 15 15 14 14 14 13 12 11 11 10 9 9 9 8 7 6 6 6 6 6 6 6 6 6 6 7 8 9 9 10 11 11 12 13 15 16 17 18 19 19 20 20 19 18 16 16 19 19 14 12 14 18 22 28 32 31 25 21 22 24 24 24 23 22 21 21 22 23 24 23 23
16 16 15 15 15 15 14 13 13 12 11 10 10 9 8 8 8 7 6 7 7 7 7 7 7 6 6 6 7 7 8 9 9 10 11 11 12 14 15 15 16 17 18 20 21 20 19 17 17 18 20 19 20 24 25 25 27 30 30 27 23 20 21 22 22 21 21 22 23 24 24 24 23 23
17 16 16 15 15 14 13 13 12 11 10 10 9 9 8 8 7 7 7 8 8 8 8 8 8 7 6 6 7 7 9 10 10 11 11 12 13 14 14 14 15 16 17 19 21 22 20 19 18 18 19 21 23 24 20 17 18 25 30 31 27 22 19 19 20 20 21 22 23 22 21 20 21 21
17 16 15 15 14 13 12 11 10 10 9 9 9 9 8 8 8 8 8 8 9 9 9 9 9 8 8 7 7 8 10 11 12 12 12 12 14 15 14 14 15 16 17 19 22 23 22 20 19 19 20 21 21 18 14 12 16 23 29 31 30 27 23 20 19 18 19 20 20 18 18 18 16 13
15 14 14 13 12 11 10 10 9 9 9 9 9 9 8 8 9 9 9 9 9 10 10 10 10 9 9 8 8 9 11 12 13 13 13 13 14 15 15 15 16 17 18 20 22 23 23 21 19 19 20 20 18 16 15 18 20 23 25 28 30 30 27 22 20 19 18 16 14 14 15 16 14 12
14 13 12 11 11 10 10 9 9 9 9 9 9 9 9 10 10 9 9 10 10 10 11 11 11 11 10 10 10 11 12 13 13 13 14 14 15 15 15 16 16 18 19 20 21 23 23 21 20 19 18 18 18 17 17 19 21 22 23 25 27 29 28 25 24 24 21 16 13 13 15 16 16 16
13 12 11 10 10 10 10 10 10 10 10 10 10 10 10 10 10 10 10 11 11 11 12 12 12 12 12 11 12 13 13 13 14 14 15 15 15 15 15 15 17 18 18 18 20 23 24 23 21 19 18 18 18 17 17 19 19 21 23 24 25 26 26 24 24 27 27 21 16 16 17 18 16 16
Wind_Direction
210 203 198 195 190 188 188 188 188 190 191 190 191 193 189 177 162 152 183 218 229 229 226 232 242 247 250 256 261 264 266 268 271 275 277 280 282 283 284 287 291 293 294 296 297 297 298 299 300 300 300 299 299 299 299 296 293 293 294 295 297 299 302 305 306 307 307 307 308 308 307 307 310 313
200 195 193 194 193 190 188 186 184 185 184 180 178 181 187 185 175 158 150 209 221 218 222 230 244 256 260 265 267 270 272 272 274 276 278 280 282 283 284 287 290 293 294 294 295 295 297 298 299 299 299 298 299 298 296 292 290 291 292 292 294 297 300 301 302 302 303 304 305 305 304 305 308 310
200 195 191 192 192 191 187 179 175 176 175 173 173 172 172 175 174 160 137 137 169 170 214 233 251 266 270 273 275 278 279 278 279 280 281 283 284 284 285 288 290 292 293 293 294 296 297 298 298 297 297 298 298 297 293 290 289 291 291 292 294 296 297 297 298 299 300 301 302 302 302 303 306 308
205 200 194 193 191 186 180 172 168 167 169 170 169 169 167 160 158 155 136 127 140 78 292 264 264 267 269 272 277 281 283 285 285 283 283 284 285 285 286 288 290 291 292 294 294 296 297 297 297 295 296 297 297 295 292 291 291 291 290 290 292 294 294 295 296 296 297 298 299 300 300 302 305 307
203 200 194 189 186 182 174 166 162 161 163 164 160 158 158 148 143 148 132 122 142 284 293 283 279 277 277 277 279 283 286 287 288 286 286 286 285 287 289 291 292 292 294 294 294 296 296 297 296 295 296 297 297 295 293 292 291 289 289 290 291 293 293 294 294 294 294 295 297 298 299 301 303 305
197 195 190 182 178 177 171 161 158 158 158 156 151 148 149 143 137 141 135 130 163 260 282 289 290 289 287 286 288 289 289 291 291 289 290 292 291 293 294 295 297 297 298 297 297 298 298 298 297 297 298 298 298 296 295 293 290 289 290 292 292 292 292 293 293 293 293 294 296 297 298 300 302 303
191 187 183 178 174 171 164 156 155 155 153 151 147 144 148 149 143 141 137 135 168 272 284 286 289 292 293 293 295 294 292 292 292 291 294 297 296 297 298 298 299 301 301 301 300 299 298 298 297 297 297 297 296 297 297 294 290 289 291 293 292 291 291 292 292 292 293 294 295 296 297 299 300 301
189 185 180 175 172 168 160 153 152 152 150 150 150 148 151 155 154 154 155 161 203 268 279 279 282 287 291 292 293 293 292 293 293 293 296 297 297 298 299 298 299 302 303 302 300 299 298 297 297 297 296 294 293 295 296 294 291 290 290 290 290 290 290 291 292 292 292 292 294 294 296 297 298 299
190 187 182 175 171 166 157 151 152 154 153 153 154 155 157 158 163 172 187 207 230 257 274 279 282 285 289 291 293 293 292 292 292 293 295 296 297 299 300 300 300 302 302 301 300 300 298 297 297 297 296 294 292 292 294 294 292 291 290 290 290 289 290 291 292 291 290 291 292 293 294 295 296 297
192 188 182 174 169 165 158 155 156 157 156 157 159 160 159 162 175 193 217 235 250 263 273 279 283 286 289 292 294 296 295 292 292 294 297 298 298 298 301 302 302 302 301 300 301 300 298 297 296 295 294 293 291 291 292 294 294 293 291 289 288 289 292 292 292 291 290 290 292 292 293 294 294 296
191 186 179 171 167 166 165 163 161 159 158 157 157 154 150 153 168 199 240 255 264 269 272 275 279 284 289 291 293 298 299 293 289 290 293 297 300 301 301 301 302 302 301 300 300 299 297 296 295 293 292 292 290 290 291 292 292 290 288 287 286 287 290 291 290 291 291 291 292 292 292 292 293 296
188 182 175 168 166 167 167 163 157 154 152 148 143 139 134 132 138 167 241 258 267 267 268 272 277 283 288 291 293 297 295 287 287 291 291 292 298 302 300 299 300 299 298 298 298 297 294 293 293 292 290 290 289 287 288 289 288 288 288 289 287 286 286 286 287 291 291 291 292 292 291 291 293 297
183 176 169 165 165 164 159 152 146 142 140 138 136 134 130 126 129 156 222 251 265 265 264 270 278 282 284 288 292 293 291 287 291 298 297 292 295 299 299 297 296 295 295 295 294 294 293 291 291 289 287 288 287 286 287 288 289 292 294 291 288 286 284 283 285 291 292 291 291 291 291 291 295 299
175 169 164 163 161 157 150 145 142 138 136 136 133 132 134 137 144 172 226 252 263 264 263 270 278 279 280 285 289 292 295 296 297 299 299 295 297 299 298 297 297 298 297 294 291 292 295 294 291 288 286 287 288 288 289 291 292 295 295 292 289 286 283 282 286 292 294 293 291 291 290 292 297 300
166 162 161 161 159 156 150 146 143 141 142 142 139 148 170 198 219 237 253 262 265 265 267 274 277 275 281 289 293 296 299 302 300 299 298 296 297 299 297 296 300 304 305 301 297 297 300 298 292 289 287 287 289 290 290 293 293 292 291 291 290 286 283 285 289 293 295 294 292 290 290 295 299 300
163 162 163 162 160 157 152 150 149 149 149 153 176 214 237 250 258 263 266 269 271 271 275 280 278 277 285 292 296 299 302 303 301 300 298 296 296 297 294 292 295 299 303 305 304 300 300 298 293 290 289 288 289 290 291 291 290 289 290 292 291 287 285 287 290 292 294 294 293 290 292 298 301 301
167 167 166 164 160 157 157 158 155 152 159 187 221 245 258 262 264 266 270 276 281 283 284 282 282 284 289 292 296 299 300 301 301 300 299 298 297 295 292 290 291 295 298 300 299 295 295 296 292 288 289 290 290 289 289 289 288 289 291 291 290 288 287 289 291 292 293 293 292 292 297 302 303 302
171 171 170 166 161 159 162 164 158 162 191 223 244 258 264 266 267 267 271 280 286 290 289 285 287 291 292 292 296 300 301 300 299 299 298 299 300 296 293 292 293 295 297 297 293 288 291 295 293 289 291 293 292 290 289 289 289 289 291 290 290 290 290 291 292 293 292 291 292 297 303 305 304 303
175 175 173 168 162 160 162 163 163 181 219 247 261 267 268 268 270 271 277 286 292 296 296 292 294 298 298 297 299 303 305 303 302 302 301 301 303 300 298 298 297 298 300 300 292 284 289 296 293 291 294 296 294 293 292 290 288 288 290 291 290 290 290 291 292 293 292 292 297 303 306 306 305 305
177 175 172 167 163 161 159 162 177 206 261 273 273 273 271 270 272 276 284 293 297 300 302 302 303 303 301 299 299 302 304 305 306 307 304 303 304 300 296 295 296 299 303 304 298 287 290 296 295 292 297 299 296 295 295 292 290 288 289 290 289 289 289 289 292 295 295 297 302 305 306 307 307 307
175 172 171 168 164 162 162 173 209 261 281 280 277 275 273 272 276 285 293 299 303 306 307 309 308 302 297 297 301 304 306 309 311 306 299 300 301 295 290 292 295 299 302 306 307 297 294 301 301 298 300 300 296 295 295 294 295 294 291 289 289 288 286 288 295 298 297 299 303 304 306 308 309 309
171 170 171 170 167 170 183 209 253 275 276 275 275 275 277 279 285 294 302 306 310 312 312 311 311 308 307 309 311 313 313 313 310 299 290 293 296 292 290 294 296 297 300 309 317 310 302 305 307 305 305 300 296 296 296 297 300 299 293 288 287 285 284 289 296 298 297 298 301 304 305 307 309 310
169 169 170 172 177 193 218 241 261 267 268 270 274 277 281 285 292 304 313 316 317 316 314 315 318 319 320 321 319 320 321 320 315 303 293 293 293 289 286 289 293 296 301 308 312 308 304 307 309 309 307 300 297 300 300 300 302 298 291 286 284 283 283 287 292 294 294 297 302 304 305 306 309 311
169 171 173 179 194 213 232 247 253 255 260 268 275 281 285 291 303 317 321 318 316 315 316 319 320 320 321 323 324 325 327 328 326 318 310 306 301 294 291 292 292 290 294 303 309 312 313 312 309 308 305 295 295 300 299 297 297 296 291 285 283 284 287 289 291 291 292 296 302 303 304 305 308 309
178 180 184 194 208 222 234 243 246 252 265 274 280 286 291 299 310 314 308 304 306 309 313 317 318 320 322 325 329 332 336 341 342 337 332 328 322 312 305 302 300 298 301 308 315 321 320 313 307 306 303 295 292 296 297 296 296 296 293 289 288 289 290 289 289 289 291 296 302 303 303 305 308 309
189 192 196 204 213 220 226 232 236 241 240 240 254 269 285 296 297 290 289 296 304 309 315 321 327 331 333 336 341 344 344 343 342 340 339 338 335 328 317 309 307 309 311 312 314 317 316 311 306 305 303 299 296 296 296 297 297 298 298 294 291 286 283 284 287 290 295 299 303 304 305 306 307 308
191 194 199 203 206 207 206 205 203 203 209 224 239 251 266 274 276 282 292 303 312 321 331 338 341 340 337 337 339 339 336 335 335 336 337 336 334 332 327 318 312 310 310 312 314 316 314 309 306 304 302 300 299 297 296 295 297 300 299 296 289 280 280 287 292 296 301 304 306 307 307 309 311 310
187 188 190 192 192 192 193 196 202 211 221 230 230 234 252 267 276 290 306 320 335 344 347 344 340 336 336 337 336 333 330 328 327 328 330 330 329 329 327 324 319 316 316 319 320 320 315 309 305 304 302 300 297 295 295 296 297 299 298 296 291 286 289 295 298 300 306 308 308 310 310 311 314 312
179 180 180 180 181 186 192 199 209 214 213 212 215 228 246 267 291 320 343 353 351 346 341 336 332 330 331 328 324 321 321 322 325 328 330 329 330 330 328 325 322 320 322 323 325 327 325 318 313 309 304 298 294 293 296 298 298 298 299 297 294 293 296 299 300 305 311 312 310 309 309 312 313 310
172 174 175 177 180 185 193 195 187 177 177 177 169 165 168 157 360 349 355 352 338 328 324 321 320 320 317 313 313 317 323 329 334 336 334 332 332 333 331 327 323 323 325 329 331 332 331 328 324 317 310 304 298 294 296 299 299 299 299 296 293 295 298 300 304 311 314 312 308 307 309 313 312 308
171 173 176 180 183 175 158 148 142 140 140 134 132 144 157 10 354 347 338 320 305 300 301 302 303 306 308 311 317 325 330 334 335 333 332 333 333 333 333 329 326 326 328 331 334 335 333 331 329 324 317 309 302 298 301 303 301 301 300 296 292 292 294 299 307 313 313 308 307 309 314 317 314 310
178 180 178 170 160 148 138 130 128 128 126 125 136 154 174 320 282 260 266 272 276 279 284 292 299 305 310 316 322 326 327 328 327 327 331 335 334 333 336 334 328 327 329 331 334 336 335 333 331 327 322 314 309 309 312 309 303 300 297 295 293 290 293 304 310 311 312 311 310 314 318 317 314 312
177 172 164 154 147 143 140 139 140 144 146 145 151 176 212 230 241 255 266 269 273 279 288 298 304 309 315 319 321 322 323 326 330 333 337 340 337 336 338 335 329 328 328 329 331 334 335 335 334 330 326 321 317 318 314 305 300 299 297 296 296 298 304 314 316 311 313 316 316 318 320 317 315 315
166 158 153 151 150 150 151 155 159 163 165 169 184 208 226 237 245 253 262 269 277 285 293 301 305 308 312 316 319 323 327 330 336 341 342 341 339 339 338 333 329 329 328 327 329 333 334 336 336 333 329 325 322 324 319 305 300 303 301 298 301 311 319 325 322 312 312 317 320 321 320 317 317 319
158 156 154 155 158 159 160 165 170 175 183 197 207 212 219 231 240 247 258 272 283 290 294 300 304 305 310 315 321 327 332 335 338 342 344 345 342 339 337 331 327 327 328 327 329 332 334 336 336 334 331 329 326 330 335 325 318 320 317 309 311 327 333 327 317 310 311 318 326 324 318 314 315 319
158 160 159 161 166 169 169 174 182 191 203 212 213 214 218 224 234 249 264 277 286 291 294 300 306 307 310 318 327 333 336 337 338 340 343 344 342 336 332 328 324 324 326 325 328 332 335 337 336 333 329 330 329 329 332 329 327 330 332 327 327 330 326 320 315 311 314 324 329 323 313 307 308 313
161 165 167 168 173 177 179 186 195 201 207 211 214 219 223 228 240 256 268 276 284 288 291 299 305 306 311 322 330 334 335 335 334 335 338 339 336 331 327 324 322 322 323 323 326 333 335 336 338 340 337 333 330 320 321 324 324 327 334 333 326 323 322 319 315 314 319 325 323 315 308 303 304 309
170 174 176 178 182 186 191 196 201 204 208 212 217 222 230 239 250 258 264 271 279 285 290 295 298 301 309 321 328 329 330 330 328 329 332 332 329 324 320 319 318 319 321 322 325 331 335 334 338 344 343 335 323 316 320 320 319 322 330 330 322 319 320 317 311 312 318 320 315 311 308 304 302 307
181 183 185 187 190 194 196 199 204 208 211 216 221 229 238 247 252 255 262 272 279 286 289 288 289 296 306 316 320 320 320 320 320 323 324 323 318 314 312 312 314 315 318 320 321 326 330 331 333 335 333 324 311 311 313 307 304 310 321 329 326 320 319 317 315 314 316 316 315 313 311 308 307 310
185 185 188 190 192 195 198 201 206 210 214 222 231 237 240 245 250 254 261 268 274 280 283 282 285 292 298 305 310 309 308 310 312 313 314 311 307 307 306 307 309 312 314 315 316 319 325 329 328 326 322 313 307 308 310 306 302 308 320 330 334 328 320 320 320 317 314 315 314 310 309 310 313 317
189 189 191 194 196 200 203 206 210 216 221 226 232 235 236 241 249 255 261 266 269 272 274 277 282 287 289 295 301 301 301 304 305 304 304 301 299 302 304 305 307 311 312 310 309 314 321 326 325 320 314 311 311 314 315 312 310 314 321 328 336 339 331 324 320 315 313 314 313 308 308 311 311 312
195 195 196 199 202 206 209 213 217 222 225 225 227 233 238 243 248 253 259 263 266 269 272 273 276 280 285 290 295 294 293 295 296 296 294 292 294 299 303 304 305 308 309 305 305 310 317 322 324 322 318 318 321 320 315 308 309 313 317 324 333 340 340 335 329 322 318 318 316 313 313 314 310 307
198 201 202 204 207 210 215 220 222 224 227 228 229 234 240 245 250 254 258 260 262 266 270 272 274 278 282 286 288 286 285 286 288 287 285 286 290 294 299 303 305 306 305 304 306 310 315 319 323 325 325 328 330 323 309 306 309 312 315 320 325 332 338 341 341 338 335 335 334 326 319 317 317 316
203 207 208 209 213 215 219 223 225 226 230 233 236 241 246 250 254 257 259 261 263 265 268 272 275 278 281 283 282 281 281 282 282 280 280 283 287 290 293 298 301 302 303 305 308 311 314 318 324 327 328 329 330 324 315 312 313 313 315 319 322 326 332 339 343 344 346 354 2 353 337 329 326 324
210 213 213 215 218 220 222 225 228 231 235 239 244 249 252 255 256 258 259 261 264 267 269 272 275 277 279 281 280 279 279 279 276 274 274 277 281 286 289 293 296 298 301 306 308 310 313 316 321 325 326 325 327 327 322 317 315 315 318 321 323 327 333 339 340 339 338 343 356 360 349 341 337 333